Date String (YYYY-MM-DD hh:mm:ss) UTC,Instrument flags,Ambient pressure (hPa),Sample flow (lpm),Bypass flow (lpm),Sample temperature (°C),Ambient temperature (°C),ASC tube jacket temperature (°C),LED temperature (°C),Box temperature (°C),Sample RH (%),Span deviation,Mass concentration (μg/m³),Mass concentration (μg/m³),Mass concentration (μg/m³)
DateTimeUTC,F1_M11,P_M11,Q1_M11,Q2_M11,T1_M11,T2_M11,T3_M11,T4_M11,T5_M11,U1_M11,ZSPAN_M11,X0_M11,X2_M11,X1_M11
2022-09-27 18:00:00,,0833.6,5.02,0.00,30.0,28.5,00.0,38.7,31.9,17.6,0000.0,0009.55,0004.02,0003.48
2022-09-27 18:01:00,,0833.6,4.99,0.00,30.1,28.6,00.0,38.7,32.0,17.7,0000.0,0009.46,0004.03,0003.46
2022-09-27 18:02:00,,0833.6,4.99,0.00,30.1,28.8,00.0,38.7,32.0,17.6,0000.0,0009.38,0004.04,0003.45
2022-09-27 18:03:00,,0833.6,5.00,0.00,30.1,28.9,00.0,38.7,32.1,17.4,0000.0,0009.71,0004.05,0003.45
2022-09-27 18:04:00,,0833.7,5.01,0.00,30.2,29.0,00.0,38.8,32.1,17.3,0000.0,0009.46,0004.03,0003.44
2022-09-27 18:05:00,,0833.6,4.99,0.00,30.2,28.1,00.0,38.7,32.0,17.6,0000.0,0009.51,0004.05,0003.43
2022-09-27 18:06:00,,0833.6,5.00,0.00,30.1,26.8,00.0,38.7,31.9,17.7,0000.0,0009.26,0004.05,0003.42
2022-09-27 18:07:00,,0833.6,5.00,0.00,30.1,26.7,00.0,38.7,31.8,17.6,0000.0,0009.42,0004.07,0003.41
2022-09-27 18:08:00,,0833.6,5.01,0.00,30.0,27.0,00.0,38.6,31.8,17.5,0000.0,0009.75,0004.07,0003.40
2022-09-27 18:09:00,,0833.6,5.01,0.00,30.0,27.3,00.0,38.6,31.7,17.5,0000.0,0010.13,0004.05,0003.40
2022-09-27 18:10:00,,0833.6,4.99,0.00,29.9,27.6,00.0,38.6,31.7,17.5,0000.0,0010.15,0004.05,0003.40
2022-09-27 18:11:00,,0833.6,5.00,0.00,29.9,27.9,00.0,38.6,31.7,17.5,0000.0,0010.22,0004.04,0003.40
2022-09-27 18:12:00,,0833.6,4.99,0.00,29.9,28.1,00.0,38.6,31.8,17.3,0000.0,0010.22,0003.97,0003.38
2022-09-27 18:13:00,,0833.6,5.01,0.00,30.0,28.3,00.0,38.6,31.9,17.4,0000.0,0010.43,0003.95,0003.36
2022-09-27 18:14:00,,0833.6,5.00,0.00,30.0,28.5,00.0,38.6,31.9,17.7,0000.0,0011.10,0003.98,0003.35
2022-09-27 18:15:00,,0833.6,5.00,0.00,30.0,28.7,00.0,38.6,31.9,17.6,0000.0,0011.00,0004.00,0003.36
2022-09-27 18:16:00,,0833.6,5.01,0.00,30.0,28.8,00.0,38.7,32.0,17.5,0000.0,0011.02,0004.01,0003.37
2022-09-27 18:17:00,,0833.5,4.99,0.00,30.1,29.0,00.0,38.7,32.0,18.0,0000.0,0010.96,0004.03,0003.38
2022-09-27 18:18:00,,0833.6,4.99,0.00,30.1,28.9,00.0,38.7,32.1,18.1,0000.0,0011.06,0004.00,0003.39
2022-09-27 18:19:00,,0833.6,5.01,0.00,30.1,27.9,00.0,38.7,32.0,17.9,0000.0,0011.49,0004.03,0003.40
2022-09-27 18:20:00,,0833.5,4.99,0.00,30.0,26.7,00.0,38.6,31.8,18.0,0000.0,0011.34,0004.04,0003.41
2022-09-27 18:21:00,,0833.5,4.99,0.00,30.0,26.7,00.0,38.6,31.8,17.9,0000.0,0011.40,0004.07,0003.43
2022-09-27 18:22:00,,0833.5,5.01,0.00,29.9,27.0,00.0,38.6,31.7,17.9,0000.0,0011.41,0004.09,0003.44
2022-09-27 18:23:00,,0833.5,5.00,0.00,29.9,27.3,00.0,38.6,31.6,17.8,0000.0,0011.09,0004.16,0003.45
2022-09-27 18:24:00,,0833.5,5.00,0.00,29.9,27.6,00.0,38.6,31.7,17.8,0000.0,0010.43,0004.15,0003.45
2022-09-27 18:25:00,,0833.5,5.00,0.00,29.9,27.9,00.0,38.5,31.7,17.7,0000.0,0009.89,0004.09,0003.44
2022-09-27 18:26:00,,0833.4,4.99,0.00,29.9,28.2,00.0,38.5,31.8,17.4,0000.0,0010.25,0004.04,0003.43
2022-09-27 18:27:00,,0833.4,5.01,0.00,29.9,28.4,00.0,38.6,31.8,17.2,0000.0,0010.81,0004.00,0003.42
2022-09-27 18:28:00,,0833.4,5.00,0.00,29.9,28.5,00.0,38.6,31.8,17.5,0000.0,0011.49,0003.99,0003.40
2022-09-27 18:29:00,,0833.4,4.99,0.00,29.9,28.7,00.0,38.6,31.9,17.4,0000.0,0011.48,0003.98,0003.38
2022-09-27 18:30:00,,0833.4,5.00,0.00,30.0,28.8,00.0,38.6,31.9,17.4,0000.0,0010.58,0003.91,0003.37
2022-09-27 18:31:00,,0833.4,4.99,0.00,30.0,28.9,00.0,38.6,32.0,17.3,0000.0,0010.89,0003.88,0003.35
2022-09-27 18:32:00,,0833.4,5.00,0.00,30.0,29.0,00.0,38.6,32.0,17.2,0000.0,0010.82,0003.86,0003.33
2022-09-27 18:33:00,,0833.4,5.01,0.00,30.1,29.1,00.0,38.7,32.1,17.7,0000.0,0010.76,0003.84,0003.32
2022-09-27 18:34:00,,0833.4,4.99,0.00,30.1,28.5,00.0,38.7,32.1,17.2,0000.0,0010.71,0003.81,0003.33
2022-09-27 18:35:00,,0833.4,5.00,0.00,30.1,27.0,00.0,38.6,31.9,17.2,0000.0,0010.93,0003.80,0003.35
2022-09-27 18:36:00,,0833.4,5.00,0.00,30.0,26.6,00.0,38.6,31.8,17.7,0000.0,0010.70,0003.85,0003.37
2022-09-27 18:37:00,,0833.4,5.00,0.00,30.0,26.8,00.0,38.6,31.7,17.5,0000.0,0010.94,0003.90,0003.39
2022-09-27 18:38:00,,0833.3,5.00,0.00,29.9,27.1,00.0,38.6,31.7,17.5,0000.0,0010.31,0003.95,0003.41
2022-09-27 18:39:00,,0833.4,4.99,0.00,29.9,27.5,00.0,38.6,31.7,17.9,0000.0,0009.54,0003.94,0003.43
2022-09-27 18:40:00,,0833.4,5.00,0.00,29.9,27.8,00.0,38.5,31.7,18.1,0000.0,0009.41,0003.99,0003.45
2022-09-27 18:41:00,,0833.3,5.00,0.00,29.9,28.1,00.0,38.5,31.7,18.3,0000.0,0009.76,0004.04,0003.47
2022-09-27 18:42:00,,0833.4,4.99,0.00,29.9,28.2,00.0,38.5,31.8,18.4,0000.0,0009.27,0004.08,0003.50
2022-09-27 18:43:00,,0833.3,5.00,0.00,29.9,28.4,00.0,38.6,31.8,18.2,0000.0,0010.06,0004.10,0003.52
2022-09-27 18:44:00,,0833.4,5.01,0.00,29.9,28.6,00.0,38.6,31.9,18.2,0000.0,0010.47,0004.12,0003.54
2022-09-27 18:45:00,,0833.4,4.99,0.00,30.0,28.8,00.0,38.6,31.9,18.4,0000.0,0011.16,0004.13,0003.54
2022-09-27 18:46:00,,0833.3,4.99,0.00,30.0,28.9,00.0,38.6,32.0,18.5,0000.0,0011.73,0004.19,0003.56
2022-09-27 18:47:00,,0833.4,5.01,0.00,30.0,29.0,00.0,38.6,32.0,18.4,0000.0,0011.97,0004.20,0003.55
2022-09-27 18:48:00,,0833.4,5.00,0.00,30.1,28.9,00.0,38.7,32.0,18.6,0000.0,0011.94,0004.23,0003.56
2022-09-27 18:49:00,,0833.4,5.01,0.00,30.1,27.6,00.0,38.6,32.0,18.6,0000.0,0012.26,0004.27,0003.57
2022-09-27 18:50:00,,0833.5,4.99,0.00,30.0,26.5,00.0,38.6,31.8,18.6,0000.0,0013.82,0004.31,0003.57
2022-09-27 18:51:00,,0833.5,5.00,0.00,30.0,26.7,00.0,38.5,31.7,18.6,0000.0,0013.94,0004.32,0003.59
2022-09-27 18:52:00,,0833.4,5.00,0.00,29.9,26.9,00.0,38.5,31.6,18.9,0000.0,0013.66,0004.36,0003.61
2022-09-27 18:53:00,,0833.4,5.01,0.00,29.8,27.3,00.0,38.5,31.6,19.2,0000.0,0013.84,0004.37,0003.60
2022-09-27 18:54:00,,0833.4,5.01,0.00,29.8,27.6,00.0,38.5,31.6,19.1,0000.0,0013.37,0004.38,0003.60
2022-09-27 18:55:00,,0833.4,5.00,0.00,29.8,27.9,00.0,38.5,31.7,18.9,0000.0,0013.85,0004.41,0003.60
2022-09-27 18:56:00,,0833.5,5.01,0.00,29.8,28.1,00.0,38.5,31.7,18.9,0000.0,0014.02,0004.45,0003.61
2022-09-27 18:57:00,,0833.5,4.99,0.00,29.9,28.3,00.0,38.5,31.7,19.1,0000.0,0013.54,0004.45,0003.61
2022-09-27 18:58:00,,0833.6,5.01,0.00,29.9,28.5,00.0,38.5,31.8,19.3,0000.0,0013.06,0004.47,0003.62
2022-09-27 18:59:00,,0833.5,4.98,0.00,29.9,28.7,00.0,38.5,31.9,19.0,0000.0,0012.71,0004.47,0003.63
